When you browse on this site, cookies collect data to enhance your experience and personalize the content and advertising you see.
Visit our Privacy Policy to learn more. By continuing to use the site, you agree to this use of cookies and data.
  • In Latvia
  • List of Countries
  • For 7 days
  • Water Temperature
  • Weather Map
  • Weather Widgets
  • user-avatar
    Login

    Hourly Weather Krasyukovskaya

    Today, 14 December, Saturday

    Time Temperature Precipitation Wind Pressure Humidity
    00:00 0°C° 0 mm 7 mps 760 mmHg 80%
    01:00 0°C° 0 mm 7 mps 760 mmHg 80%
    02:00 0°C° 0 mm 7 mps 760 mmHg 80%
    03:00 -1°C° 0 mm 6 mps 760 mmHg 77%
    04:00 -1°C° 0.1 mm 6 mps 759 mmHg 80%
    05:00 -1°C° 0.1 mm 6 mps 759 mmHg 83%
    06:00 -1°C° 0.1 mm 6 mps 759 mmHg 86%
    07:00 -1°C° 0.5 mm 6 mps 759 mmHg 88%
    08:00 +1°C° 0.5 mm 6 mps 759 mmHg 90%
    09:00 +1°C° 0 mm 6 mps 759 mmHg 92%
    10:00 +2°C° 0.3 mm 6 mps 759 mmHg 91%
    11:00 +2°C° 0.3 mm 6 mps 759 mmHg 90%
    12:00 +3°C° 0.3 mm 6 mps 759 mmHg 89%
    13:00 +4°C° 0 mm 6 mps 759 mmHg 86%
    14:00 +5°C° 0 mm 5 mps 759 mmHg 84%
    15:00 +6°C° 0 mm 4 mps 759 mmHg 81%
    16:00 +6°C° 0 mm 4 mps 759 mmHg 84%
    17:00 +5°C° 0 mm 5 mps 759 mmHg 86%
    18:00 +5°C° 0 mm 5 mps 759 mmHg 89%
    19:00 +5°C° 0.2 mm 5 mps 759 mmHg 91%
    20:00 +5°C° 0.2 mm 5 mps 759 mmHg 92%
    21:00 +5°C° 0.2 mm 5 mps 759 mmHg 93%
    22:00 +5°C° 1.3 mm 4 mps 759 mmHg 94%
    23:00 +5°C° 1.3 mm 4 mps 759 mmHg 95%

    Tomorrow, 15 December, Sunday

    Time Temperature Precipitation Wind Pressure Humidity
    00:00 +7°C° 1.3 mm 3 mps 759 mmHg 96%
    01:00 +6°C° 1.6 mm 4 mps 760 mmHg 96%
    02:00 +5°C° 1.6 mm 5 mps 760 mmHg 96%
    03:00 +4°C° 1.6 mm 6 mps 760 mmHg 95%
    04:00 +4°C° 0.1 mm 6 mps 759 mmHg 95%
    05:00 +5°C° 0.1 mm 5 mps 759 mmHg 94%
    06:00 +5°C° 0.1 mm 5 mps 759 mmHg 93%
    07:00 +5°C° 0.1 mm 5 mps 759 mmHg 93%
    08:00 +6°C° 0.1 mm 5 mps 760 mmHg 93%
    09:00 +6°C° 0.1 mm 5 mps 760 mmHg 93%
    10:00 +6°C° 0 mm 5 mps 760 mmHg 91%
    11:00 +6°C° 0 mm 5 mps 760 mmHg 90%
    12:00 +7°C° 0 mm 5 mps 760 mmHg 88%
    13:00 +7°C° 0 mm 4 mps 759 mmHg 87%
    14:00 +7°C° 0 mm 4 mps 759 mmHg 86%
    15:00 +8°C° 0 mm 4 mps 759 mmHg 85%
    16:00 +7°C° 0 mm 4 mps 759 mmHg 86%
    17:00 +7°C° 0 mm 4 mps 759 mmHg 88%
    18:00 +6°C° 0 mm 4 mps 760 mmHg 89%
    19:00 +6°C° 0 mm 4 mps 760 mmHg 89%
    20:00 +7°C° 0 mm 3 mps 760 mmHg 88%
    21:00 +7°C° 0 mm 3 mps 760 mmHg 88%
    22:00 +7°C° 0.4 mm 3 mps 760 mmHg 90%
    23:00 +7°C° 0.4 mm 3 mps 761 mmHg 92%

    Day after tomorrow, 16 December, Monday

    Time Temperature Precipitation Wind Pressure Humidity
    00:00 +7°C° 0.4 mm 3 mps 761 mmHg 95%
    01:00 +7°C° 0.2 mm 3 mps 761 mmHg 94%
    02:00 +7°C° 0.2 mm 3 mps 762 mmHg 94%
    03:00 +5°C° 0.2 mm 4 mps 762 mmHg 93%
    04:00 +5°C° 0 mm 4 mps 763 mmHg 91%
    05:00 +4°C° 0 mm 4 mps 763 mmHg 89%
    06:00 +4°C° 0 mm 4 mps 764 mmHg 87%
    07:00 +3°C° 0 mm 3 mps 765 mmHg 86%
    08:00 +3°C° 0 mm 3 mps 765 mmHg 85%
    09:00 +2°C° 0 mm 3 mps 766 mmHg 84%
    10:00 +3°C° 0 mm 3 mps 766 mmHg 80%
    11:00 +4°C° 0 mm 3 mps 767 mmHg 77%
    12:00 +5°C° 0 mm 4 mps 767 mmHg 73%
    13:00 +5°C° 0 mm 4 mps 767 mmHg 71%
    14:00 +6°C° 0 mm 4 mps 767 mmHg 69%
    15:00 +6°C° 0 mm 4 mps 767 mmHg 67%
    16:00 +5°C° 0 mm 4 mps 767 mmHg 70%
    17:00 +5°C° 0 mm 4 mps 767 mmHg 74%
    18:00 +4°C° 0 mm 4 mps 767 mmHg 77%
    19:00 +4°C° 0 mm 4 mps 767 mmHg 78%
    20:00 +3°C° 0 mm 4 mps 767 mmHg 79%
    21:00 +3°C° 0 mm 4 mps 767 mmHg 81%
    22:00 +3°C° 0 mm 4 mps 767 mmHg 82%
    23:00 +3°C° 0 mm 4 mps 768 mmHg 84%

    17 December, Tuesday

    Time Temperature Precipitation Wind Pressure Humidity
    00:00 +3°C° 0 mm 4 mps 768 mmHg 86%
    01:00 +3°C° 0 mm 4 mps 768 mmHg 86%
    02:00 +3°C° 0 mm 4 mps 768 mmHg 85%
    03:00 +3°C° 0 mm 4 mps 768 mmHg 85%
    04:00 +3°C° 0 mm 3 mps 768 mmHg 86%
    05:00 +3°C° 0 mm 3 mps 768 mmHg 87%
    06:00 +4°C° 0 mm 2 mps 768 mmHg 88%
    07:00 +4°C° 0 mm 2 mps 768 mmHg 88%
    08:00 +4°C° 0 mm 2 mps 768 mmHg 89%
    09:00 +4°C° 0 mm 2 mps 768 mmHg 90%
    10:00 +6°C° 0 mm 2 mps 768 mmHg 87%
    11:00 +7°C° 0 mm 3 mps 768 mmHg 84%
    12:00 +8°C° 0 mm 3 mps 768 mmHg 80%
    13:00 +8°C° 0 mm 3 mps 768 mmHg 79%
    14:00 +8°C° 0 mm 3 mps 768 mmHg 78%
    15:00 +9°C° 0 mm 3 mps 767 mmHg 77%
    16:00 +8°C° 0 mm 3 mps 767 mmHg 80%
    17:00 +7°C° 0 mm 2 mps 768 mmHg 83%
    18:00 +6°C° 0 mm 2 mps 768 mmHg 87%
    19:00 +6°C° 0 mm 2 mps 768 mmHg 86%
    20:00 +6°C° 0 mm 2 mps 768 mmHg 86%
    21:00 +5°C° 0 mm 2 mps 768 mmHg 86%
    22:00 +5°C° 0 mm 2 mps 768 mmHg 85%
    23:00 +5°C° 0 mm 2 mps 768 mmHg 83%

    18 December, Wednesday

    Time Temperature Precipitation Wind Pressure Humidity
    00:00 +4°C° 0 mm 3 mps 768 mmHg 82%
    01:00 +3°C° 0 mm 3 mps 768 mmHg 84%
    02:00 +3°C° 0 mm 3 mps 768 mmHg 86%
    03:00 +3°C° 0 mm 3 mps 767 mmHg 87%
    04:00 +3°C° 0 mm 3 mps 767 mmHg 89%
    05:00 +3°C° 0 mm 3 mps 767 mmHg 91%
    06:00 +3°C° 0 mm 3 mps 767 mmHg 93%
    07:00 +3°C° 0 mm 3 mps 767 mmHg 94%
    08:00 +3°C° 0 mm 3 mps 767 mmHg 95%
    09:00 +4°C° 0 mm 4 mps 767 mmHg 95%
    10:00 +5°C° 0 mm 4 mps 767 mmHg 92%
    11:00 +6°C° 0 mm 5 mps 767 mmHg 89%
    12:00 +7°C° 0 mm 6 mps 767 mmHg 86%
    13:00 +8°C° 0 mm 6 mps 766 mmHg 84%
    14:00 +8°C° 0 mm 5 mps 766 mmHg 82%
    15:00 +9°C° 0 mm 5 mps 765 mmHg 81%
    16:00 +8°C° 0 mm 5 mps 765 mmHg 83%
    17:00 +7°C° 0 mm 5 mps 765 mmHg 86%
    18:00 +7°C° 0 mm 5 mps 765 mmHg 88%
    19:00 +7°C° 0 mm 5 mps 765 mmHg 88%
    20:00 +6°C° 0 mm 5 mps 765 mmHg 89%
    21:00 +5°C° 0 mm 6 mps 764 mmHg 89%
    22:00 +5°C° 0 mm 6 mps 764 mmHg 89%
    23:00 +5°C° 0 mm 6 mps 765 mmHg 88%

    19 December, Thursday

    Time Temperature Precipitation Wind Pressure Humidity
    00:00 +5°C° 0 mm 6 mps 765 mmHg 88%
    01:00 +5°C° 0 mm 6 mps 764 mmHg 87%
    02:00 +6°C° 0 mm 5 mps 764 mmHg 87%
    03:00 +6°C° 0 mm 5 mps 764 mmHg 86%
    04:00 +5°C° 0 mm 5 mps 764 mmHg 87%
    05:00 +5°C° 0 mm 5 mps 764 mmHg 87%
    06:00 +5°C° 0 mm 4 mps 764 mmHg 88%
    07:00 +5°C° 0 mm 5 mps 764 mmHg 87%
    08:00 +5°C° 0 mm 5 mps 763 mmHg 87%
    09:00 +5°C° 0 mm 5 mps 763 mmHg 86%
    10:00 +5°C° 0 mm 6 mps 763 mmHg 80%
    11:00 +8°C° 0 mm 6 mps 763 mmHg 74%
    12:00 +9°C° 0 mm 7 mps 763 mmHg 68%
    13:00 +9°C° 0 mm 7 mps 763 mmHg 67%
    14:00 +10°C° 0 mm 7 mps 762 mmHg 66%
    15:00 +10°C° 0 mm 7 mps 762 mmHg 66%
    16:00 +9°C° 0 mm 6 mps 762 mmHg 68%
    17:00 +8°C° 0 mm 6 mps 761 mmHg 71%
    18:00 +7°C° 0 mm 5 mps 761 mmHg 73%
    19:00 +7°C° 0 mm 5 mps 761 mmHg 75%
    20:00 +7°C° 0 mm 5 mps 761 mmHg 78%
    21:00 +6°C° 0 mm 4 mps 761 mmHg 80%
    22:00 +6°C° 0 mm 4 mps 760 mmHg 82%
    23:00 +5°C° 0 mm 4 mps 760 mmHg 84%
    Show more